W5DRO-13 Weather Reports


Display with metric or nautical units.
time (UTC)temp
F
wind
direction
speed
MPH
gust
MPH
rain 1hr
in
rain 24hr
in
rain mn
in
humidity
%
barometer
mb
20260507083527 40 79 0.0 0.0 0.00 0.00 0.00 92 1020.4
20260507083025 40 79 0.0 0.0 0.00 0.00 0.00 92 1020.4
20260507082520 40 79 0.0 0.0 0.00 0.00 0.00 91 1020.2
20260507082016 40 79 0.0 0.0 0.00 0.00 0.00 91 1020.2
20260507081513 40 79 0.0 0.0 0.00 0.00 0.00 91 1020.1
20260507081010 40 79 0.0 0.0 0.00 0.00 0.00 91 1020.1
20260507080506 41 79 0.0 0.0 0.00 0.00 0.00 91 1020.2
20260507080001 41 79 0.0 0.0 0.00 0.00 0.00 90 1020.2
20260507075458 41 79 0.0 0.0 0.00 0.00 0.00 90 1020.2
20260507074954 41 79 0.0 0.0 0.00 0.00 0.00 90 1020.3
20260507074451 41 79 0.0 0.0 0.00 0.00 0.00 90 1020.6
20260507073950 41 79 0.0 0.0 0.00 0.00 0.00 90 1020.4
20260507073445 41 79 0.0 0.0 0.00 0.00 0.00 89 1020.2
20260507072942 42 79 0.0 0.0 0.00 0.00 0.00 88 1020.4
20260507072439 42 79 0.0 0.0 0.00 0.00 0.00 88 1020.3
20260507071937 42 79 0.0 0.0 0.00 0.00 0.00 88 1020.1
20260507071434 42 79 0.0 0.0 0.00 0.00 0.00 88 1020.1
20260507070930 43 79 0.0 0.0 0.00 0.00 0.00 87 1020.3
20260507070428 43 79 0.0 0.0 0.00 0.00 0.00 87 1020.0
20260507065924 43 79 0.0 1.0 0.00 0.00 0.00 88 1020.1
20260507065421 43 79 0.0 0.0 0.00 0.00 0.00 88 1020.2
20260507064919 43 79 0.0 0.0 0.00 0.00 0.00 87 1020.4
20260507064417 43 79 0.0 0.0 0.00 0.00 0.00 87 1019.8
20260507063914 43 79 0.0 0.0 0.00 0.00 0.00 87 1020.2
20260507063411 43 79 0.0 0.0 0.00 0.00 0.00 87 1020.7
20260507062908 43 79 0.0 0.0 0.00 0.00 0.00 86 1020.7
20260507062405 44 79 0.0 0.0 0.00 0.00 0.00 85 1020.9
20260507061903 44 79 0.0 0.0 0.00 0.00 0.00 85 1020.8
20260507061401 44 79 0.0 0.0 0.00 0.00 0.00 84 1020.8
20260507060859 44 79 0.0 0.0 0.00 0.00 0.00 84 1021.0
20260507060355 44 79 0.0 0.0 0.00 0.00 0.00 84 1021.0
20260507055852 45 79 0.0 0.0 0.00 0.00 0.00 84 1020.9
20260507055347 45 79 0.0 0.0 0.00 0.00 0.00 84 1021.0
20260507054844 45 79 0.0 0.0 0.00 0.00 0.00 83 1020.9
20260507054340 45 79 0.0 0.0 0.00 0.00 0.00 83 1021.0
20260507053837 45 79 0.0 0.0 0.00 0.00 0.00 82 1020.8
20260507053335 45 79 0.0 0.0 0.00 0.00 0.00 81 1020.8
20260507052834 46 79 0.0 0.0 0.00 0.00 0.00 81 1020.6
20260507052330 46 79 0.0 0.0 0.00 0.00 0.00 81 1020.9
20260507051828 46 79 0.0 0.0 0.00 0.00 0.00 80 1020.4
20260507051325 46 79 0.0 0.0 0.00 0.00 0.00 80 1020.7
20260507050822 47 79 0.0 0.0 0.00 0.00 0.00 79 1020.6
20260507050318 47 79 0.0 0.0 0.00 0.00 0.00 78 1020.5
20260507045815 47 79 0.0 1.0 0.00 0.00 0.00 78 1020.4
20260507045312 48 91 0.0 0.0 0.00 0.00 0.00 77 1020.3
20260507044809 49 91 0.0 0.0 0.00 0.00 0.00 75 1020.2
20260507044305 49 91 0.0 0.0 0.00 0.00 0.00 74 1019.8
20260507043801 49 91 0.0 0.0 0.00 0.00 0.00 74 1019.9
20260507043258 50 91 0.0 0.0 0.00 0.00 0.00 71 1020.1
20260507042755 50 91 0.0 0.0 0.00 0.00 0.00 71 1019.8
20260507042249 50 91 0.0 0.0 0.00 0.00 0.00 71 1019.7
20260507041748 49 56 0.0 0.0 0.00 0.00 0.00 73 1019.7
20260507041244 48 56 0.0 0.0 0.00 0.00 0.00 75 1019.7
20260507040741 49 56 0.0 0.0 0.00 0.00 0.00 76 1020.1
20260507040237 49 56 0.0 0.0 0.00 0.00 0.00 76 1020.1
20260507035733 49 56 0.0 0.0 0.00 0.00 0.00 76 1020.0
20260507035229 49 56 0.0 0.0 0.00 0.00 0.00 75 1019.9
20260507034726 50 56 0.0 0.0 0.00 0.00 0.00 73 1020.0
20260507034223 50 56 0.0 0.0 0.00 0.00 0.00 73 1019.9
20260507033722 50 56 0.0 0.0 0.00 0.00 0.00 71 1019.8
20260507033219 51 56 0.0 0.0 0.00 0.00 0.00 71 1019.7
20260507032716 51 56 0.0 0.0 0.00 0.00 0.00 72 1019.7
20260507032212 51 56 0.0 0.0 0.00 0.00 0.00 69 1019.6
20260507031709 52 56 0.0 0.0 0.00 0.00 0.00 70 1019.7
20260507031205 52 56 0.0 0.0 0.00 0.00 0.00 69 1019.6
20260507030702 53 56 0.0 0.0 0.00 0.00 0.00 69 1019.5
20260507030200 54 56 0.0 0.0 0.00 0.00 0.00 66 1019.5
20260507025657 54 56 0.0 0.0 0.00 0.00 0.00 65 1019.3
20260507025154 55 56 0.0 0.0 0.00 0.00 0.00 63 1019.2
20260507024652 55 56 0.0 0.0 0.00 0.00 0.00 62 1019.1
20260507024149 55 64 0.0 0.0 0.00 0.00 0.00 63 1018.9
20260507023644 56 77 0.0 0.0 0.00 0.00 0.00 62 1018.9
20260507023142 56 59 0.0 0.0 0.00 0.00 0.00 60 1018.8
20260507022639 57 59 0.0 1.0 0.00 0.00 0.00 59 1018.8
20260507022134 58 59 0.0 0.0 0.00 0.00 0.00 58 1018.9
20260507021631 58 50 0.0 0.0 0.00 0.00 0.00 58 1018.8
20260507021126 59 66 1.0 1.0 0.00 0.00 0.00 57 1019.1
20260507020625 59 77 0.0 0.0 0.00 0.00 0.00 58 1018.9
20260507020121 59 84 2.0 3.0 0.00 0.00 0.00 56 1018.7
20260507015619 59 54 0.0 1.0 0.00 0.00 0.00 57 1018.7
20260507015116 60 53 1.0 1.0 0.00 0.00 0.00 55 1018.5
20260507014613 60 24 0.0 1.0 0.00 0.00 0.00 55 1018.4
20260507014109 60 65 0.0 0.0 0.00 0.00 0.00 55 1018.4
20260507013606 60 55 0.0 0.0 0.00 0.00 0.00 55 1018.4
20260507013103 60 54 2.0 2.0 0.00 0.00 0.00 54 1018.6
20260507012600 60 359 0.0 2.0 0.00 0.00 0.00 54 1018.2
20260507012055 60 65 1.0 2.0 0.00 0.00 0.00 54 1018.4
20260507011554 61 61 1.0 1.0 0.00 0.00 0.00 53 1018.4
20260507011050 61 346 0.0 1.0 0.00 0.00 0.00 52 1018.3
20260507010544 61 39 0.0 0.0 0.00 0.00 0.00 53 1018.3
20260507010041 61 63 0.0 2.0 0.00 0.00 0.00 51 1018.1
20260507005538 61 57 0.0 2.0 0.00 0.00 0.00 50 1018.1
20260507005034 62 56 0.0 0.0 0.00 0.00 0.00 51 1018.0
20260507004532 62 45 0.0 2.0 0.00 0.00 0.00 52 1018.0
20260507004029 62 99 1.0 2.0 0.00 0.00 0.00 52 1018.1
20260507003524 62 42 1.0 4.0 0.00 0.00 0.00 52 1018.1
20260507003020 62 63 0.0 1.0 0.00 0.00 0.00 52 1018.1
20260507002516 62 83 2.0 4.0 0.00 0.00 0.00 51 1017.9
20260507002013 62 42 0.0 1.0 0.00 0.00 0.00 50 1017.6
20260507001509 62 72 0.0 0.0 0.00 0.00 0.00 49 1017.4
20260507001007 62 355 0.0 2.0 0.00 0.00 0.00 49 1017.5
20260507000503 62 89 0.0 1.0 0.00 0.00 0.00 49 1017.6
20260506235958 63 289 1.0 2.0 0.00 0.00 0.00 48 1017.6
20260506235456 64 58 1.0 1.0 0.00 0.00 0.00 47 1017.5
20260506234951 64 115 1.0 2.0 0.00 0.00 0.00 47 1017.4
20260506234449 64 49 1.0 4.0 0.00 0.00 0.00 46 1017.3
20260506233946 64 57 1.0 6.0 0.00 0.00 0.00 46 1017.3
20260506233443 64 56 3.0 6.0 0.00 0.00 0.00 46 1017.5
20260506232939 64 25 1.0 8.0 0.00 0.00 0.00 46 1017.1
20260506232436 64 24 0.0 3.0 0.00 0.00 0.00 47 1017.3
20260506231931 65 56 1.0 3.0 0.00 0.00 0.00 46 1017.1
20260506231429 65 29 2.0 3.0 0.00 0.00 0.00 46 1017.0
20260506230926 66 50 2.0 2.0 0.00 0.00 0.00 44 1017.0
20260506230422 66 30 1.0 4.0 0.00 0.00 0.00 44 1017.1
20260506225919 66 53 5.0 9.0 0.00 0.00 0.00 44 1017.0
20260506225417 66 48 1.0 4.0 0.00 0.00 0.00 43 1017.0
20260506224914 66 48 0.0 7.0 0.00 0.00 0.00 44 1016.7
20260506224411 66 310 0.0 3.0 0.00 0.00 0.00 44 1016.9
20260506223907 66 68 2.0 3.0 0.00 0.00 0.00 45 1016.9
20260506223402 66 50 3.0 6.0 0.00 0.00 0.00 44 1016.6
20260506222900 66 72 1.0 6.0 0.00 0.00 0.00 45 1016.6
20260506222355 65 53 1.0 2.0 0.00 0.00 0.00 46 1016.5
20260506221853 64 74 0.0 2.0 0.00 0.00 0.00 48 1016.4
20260506221350 65 17 2.0 4.0 0.00 0.00 0.00 46 1016.6
20260506220848 67 81 1.0 10.0 0.00 0.00 0.00 44 1016.6
20260506220343 66 66 3.0 6.0 0.00 0.00 0.00 45 1016.4
20260506215840 65 41 1.0 6.0 0.00 0.00 0.00 45 1016.5
20260506215336 65 16 2.0 6.0 0.00 0.00 0.00 46 1016.7
20260506214832 66 31 3.0 9.0 0.00 0.00 0.00 45 1016.6
20260506214329 64 46 1.0 2.0 0.00 0.00 0.00 51 1016.8
20260506213828 64 42 2.0 4.0 0.00 0.00 0.00 48 1016.8
20260506213324 64 156 0.0 2.0 0.00 0.00 0.00 51 1016.9
20260506212822 64 57 2.0 3.0 0.00 0.00 0.00 49 1016.7
20260506212317 64 78 1.0 6.0 0.00 0.00 0.00 49 1016.9
20260506211812 66 141 3.0 4.0 0.00 0.00 0.00 48 1017.0
20260506211309 65 75 1.0 3.0 0.00 0.00 0.00 46 1016.9
20260506210807 64 84 1.0 4.0 0.00 0.00 0.00 48 1017.0
20260506210303 65 70 0.0 9.0 0.00 0.00 0.00 46 1017.0
20260506205800 64 297 4.0 7.0 0.00 0.00 0.00 50 1017.0
20260506205256 63 357 1.0 6.0 0.00 0.00 0.00 49 1016.9
20260506204752 63 359 2.0 7.0 0.00 0.00 0.00 52 1017.1
20260506204250 63 30 4.0 7.0 0.00 0.00 0.00 50 1017.3
20260506203748 63 65 2.0 4.0 0.00 0.00 0.00 51 1017.2
20260506203245 63 133 2.0 4.0 0.00 0.00 0.00 51 1017.1
20260506202742 63 0 2.0 4.0 0.00 0.00 0.00 52 1017.4
20260506202239 63 52 3.0 7.0 0.00 0.00 0.00 53 1017.3
20260506201735 63 88 1.0 4.0 0.00 0.00 0.00 52 1017.4
20260506201232 63 64 3.0 4.0 0.00 0.00 0.00 52 1017.4
20260506200729 63 29 1.0 4.0 0.00 0.00 0.00 52 1017.5
20260506200226 62 39 0.0 2.0 0.00 0.00 0.00 53 1017.6
20260506195722 62 56 2.0 8.0 0.00 0.00 0.00 52 1017.5
20260506195219 63 62 1.0 4.0 0.00 0.00 0.00 51 1017.4
20260506194716 63 347 1.0 6.0 0.00 0.00 0.00 51 1017.6
20260506194212 63 84 2.0 4.0 0.00 0.00 0.00 51 1017.5
20260506193710 63 1 4.0 6.0 0.00 0.00 0.00 51 1017.4
20260506193207 63 42 2.0 4.0 0.00 0.00 0.00 52 1017.6
20260506192703 62 37 2.0 8.0 0.00 0.00 0.00 53 1018.0
20260506192200 62 74 1.0 4.0 0.00 0.00 0.00 52 1017.8
20260506191657 63 47 0.0 4.0 0.00 0.00 0.00 52 1017.6
20260506191153 63 11 3.0 6.0 0.00 0.00 0.00 52 1017.8
20260506190650 64 355 2.0 3.0 0.00 0.00 0.00 52 1017.9
20260506190147 63 34 0.0 6.0 0.00 0.00 0.00 53 1017.9
20260506185644 63 62 1.0 4.0 0.00 0.00 0.00 52 1017.9
20260506185140 63 93 4.0 6.0 0.00 0.00 0.00 50 1018.0
20260506184638 63 70 2.0 3.0 0.00 0.00 0.00 51 1017.8
20260506184135 63 87 2.0 8.0 0.00 0.00 0.00 50 1018.0
20260506183632 63 243 1.0 2.0 0.00 0.00 0.00 51 1018.1
20260506183127 62 350 0.0 1.0 0.00 0.00 0.00 53 1018.2
20260506182625 63 236 1.0 4.0 0.00 0.00 0.00 51 1018.2
20260506182122 63 55 5.0 8.0 0.00 0.00 0.00 50 1018.2
20260506181620 61 15 2.0 7.0 0.00 0.00 0.00 53 1018.2
20260506181117 62 49 6.0 9.0 0.00 0.00 0.00 52 1018.4
20260506180614 61 36 4.0 6.0 0.00 0.00 0.00 52 1018.3
20260506180110 61 44 1.0 4.0 0.00 0.00 0.00 53 1018.7
20260506175606 62 34 4.0 6.0 0.00 0.00 0.00 51 1018.8
20260506175102 62 27 3.0 6.0 0.00 0.00 0.00 51 1019.0
20260506174602 62 23 4.0 6.0 0.00 0.00 0.00 50 1018.8
20260506174057 61 49 3.0 4.0 0.00 0.00 0.00 54 1018.8
20260506173555 61 60 3.0 3.0 0.00 0.00 0.00 52 1018.7
20260506173052 63 66 3.0 8.0 0.00 0.00 0.00 50 1018.7
20260506172549 60 79 1.0 2.0 0.00 0.00 0.00 54 1018.6
20260506172045 60 37 3.0 8.0 0.00 0.00 0.00 53 1018.8
20260506171543 60 61 4.0 7.0 0.00 0.00 0.00 55 1018.7
20260506171041 60 355 2.0 6.0 0.00 0.00 0.00 52 1018.8
20260506170538 60 91 3.0 10.0 0.00 0.00 0.00 54 1018.9
20260506170035 59 106 1.0 7.0 0.00 0.00 0.00 54 1019.0
20260506165534 60 62 1.0 8.0 0.00 0.00 0.00 54 1019.0
20260506165029 61 55 5.0 7.0 0.00 0.00 0.00 52 1019.0
20260506164526 60 20 4.0 8.0 0.00 0.00 0.00 51 1019.0
20260506164024 62 339 3.0 6.0 0.00 0.00 0.00 51 1019.0
20260506163520 62 70 4.0 4.0 0.00 0.00 0.00 51 1019.1
20260506163016 62 68 2.0 6.0 0.00 0.00 0.00 51 1019.1
20260506162512 61 99 2.0 3.0 0.00 0.00 0.00 55 1019.1
20260506162009 59 48 3.0 6.0 0.00 0.00 0.00 54 1019.0
20260506161507 59 53 2.0 9.0 0.00 0.00 0.00 56 1018.9
20260506161004 58 74 4.0 7.0 0.00 0.00 0.00 54 1018.9
20260506160502 58 43 4.0 8.0 0.00 0.00 0.00 55 1019.0
20260506155959 58 203 2.0 6.0 0.00 0.00 0.00 55 1018.7
20260506155457 57 356 0.0 2.0 0.00 0.00 0.00 58 1018.9
20260506153628 57 53 5.0 8.0 0.00 0.00 0.00 58 1018.9
20260506153125 57 36 3.0 6.0 0.00 0.00 0.00 60 1018.9
20260506152622 56 55 0.0 7.0 0.00 0.00 0.00 61 1018.9
20260506152120 56 67 2.0 6.0 0.00 0.00 0.00 62 1018.8
20260506151619 56 58 4.0 8.0 0.00 0.00 0.00 61 1018.9
20260506151115 55 34 5.0 7.0 0.00 0.00 0.00 63 1018.9
20260506150612 55 38 2.0 4.0 0.00 0.00 0.00 64 1018.5
20260506150109 55 31 2.0 6.0 0.00 0.00 0.00 65 1018.4
20260506145606 54 22 4.0 6.0 0.00 0.00 0.00 65 1018.4
20260506145103 54 38 2.0 8.0 0.00 0.00 0.00 67 1018.1
20260506144559 53 226 1.0 3.0 0.00 0.00 0.00 70 1018.1
20260506144056 53 97 1.0 8.0 0.00 0.00 0.00 70 1018.3
20260506143554 52 32 3.0 4.0 0.00 0.00 0.00 72 1018.3
20260506143052 52 36 4.0 8.0 0.00 0.00 0.00 71 1018.3
20260506142550 52 74 3.0 7.0 0.00 0.00 0.00 72 1018.1
20260506142048 51 307 2.0 8.0 0.00 0.00 0.00 73 1018.0
20260506141545 51 44 2.0 2.0 0.00 0.00 0.00 75 1018.1
20260506141043 51 84 2.0 9.0 0.00 0.00 0.00 75 1018.4
20260506140540 51 85 3.0 7.0 0.00 0.00 0.00 74 1018.2
20260506140038 51 49 2.0 6.0 0.00 0.00 0.00 75 1018.4
20260506135534 51 266 7.0 13.0 0.00 0.00 0.00 75 1018.4
20260506135030 51 55 0.0 7.0 0.00 0.00 0.00 76 1018.3
20260506134527 51 61 1.0 4.0 0.00 0.00 0.00 76 1018.4
20260506134023 50 54 1.0 6.0 0.00 0.00 0.00 77 1018.2
20260506133521 50 66 4.0 6.0 0.00 0.00 0.00 77 1018.2
20260506133018 50 121 1.0 6.0 0.00 0.00 0.00 78 1018.2
20260506132514 50 57 1.0 4.0 0.00 0.00 0.00 78 1018.2
20260506132012 50 81 2.0 4.0 0.00 0.00 0.00 79 1018.2
20260506131509 49 51 2.0 6.0 0.00 0.00 0.00 79 1017.9
20260506131005 49 50 1.0 3.0 0.00 0.00 0.00 80 1018.0
20260506130502 49 31 2.0 4.0 0.00 0.00 0.00 80 1018.1
20260506125959 49 74 4.0 6.0 0.00 0.00 0.00 80 1018.1
20260506125458 49 14 3.0 8.0 0.00 0.00 0.00 80 1018.0
20260506124955 49 69 2.0 4.0 0.00 0.00 0.00 81 1018.1
20260506124453 49 60 2.0 3.0 0.00 0.00 0.00 82 1017.8
20260506123951 49 354 3.0 8.0 0.00 0.00 0.00 82 1017.8
20260506123448 48 82 2.0 3.0 0.00 0.00 0.00 82 1017.9
20260506122946 48 167 1.0 4.0 0.00 0.00 0.00 81 1017.6
20260506122443 48 49 3.0 7.0 0.00 0.00 0.00 81 1017.4
20260506121941 48 98 1.0 3.0 0.00 0.00 0.00 81 1017.4
20260506121438 48 59 0.0 2.0 0.00 0.00 0.00 81 1017.0
20260506120934 48 60 0.0 3.0 0.00 0.00 0.00 81 1017.3
20260506120432 48 71 0.0 6.0 0.00 0.00 0.00 81 1017.2
20260506115929 48 47 1.0 7.0 0.00 0.00 0.00 81 1017.0
20260506115427 48 57 1.0 4.0 0.00 0.00 0.00 81 1017.4
20260506114925 48 77 0.0 3.0 0.00 0.00 0.00 81 1017.0
20260506114422 48 7 2.0 4.0 0.00 0.00 0.00 80 1016.7
20260506113921 48 66 5.0 7.0 0.00 0.00 0.00 80 1016.6
20260506113418 48 65 1.0 2.0 0.00 0.00 0.00 80 1016.5
20260506112914 48 80 2.0 3.0 0.00 0.00 0.00 80 1016.7
20260506112413 48 93 3.0 4.0 0.00 0.00 0.00 80 1016.7
20260506111909 48 332 1.0 7.0 0.00 0.00 0.00 80 1016.5
20260506111408 48 45 1.0 3.0 0.00 0.00 0.00 79 1016.5
20260506110904 49 67 2.0 3.0 0.00 0.00 0.00 79 1016.5
20260506110402 49 8 1.0 4.0 0.00 0.00 0.00 79 1016.9
20260506105858 49 65 2.0 3.0 0.00 0.00 0.00 79 1017.1
20260506105355 49 33 1.0 6.0 0.00 0.00 0.00 79 1017.0
20260506104852 49 356 2.0 3.0 0.00 0.00 0.00 78 1017.1
20260506104350 49 5 1.0 3.0 0.00 0.00 0.00 78 1016.9
20260506103847 49 339 0.0 2.0 0.00 0.00 0.00 78 1016.9
20260506103345 49 326 2.0 3.0 0.00 0.00 0.00 78 1017.1
20260506102842 49 4 0.0 4.0 0.00 0.00 0.00 77 1017.0
20260506102340 49 345 3.0 6.0 0.00 0.00 0.00 78 1016.9
20260506101837 49 350 1.0 2.0 0.00 0.00 0.00 77 1016.9
20260506101333 49 53 2.0 4.0 0.00 0.00 0.00 77 1016.8
20260506100831 49 43 3.0 6.0 0.00 0.00 0.00 77 1016.9
20260506100329 49 357 4.0 6.0 0.00 0.00 0.00 77 1016.8
20260506095827 49 49 3.0 7.0 0.00 0.00 0.00 77 1016.5
20260506095324 49 54 1.0 2.0 0.00 0.00 0.00 77 1016.4
20260506094821 49 32 1.0 3.0 0.00 0.00 0.00 77 1016.4
20260506094319 49 280 1.0 8.0 0.00 0.00 0.00 77 1016.3
20260506093817 49 356 3.0 6.0 0.00 0.00 0.00 77 1016.1
20260506093314 49 358 1.0 6.0 0.00 0.00 0.00 76 1016.0
20260506092812 49 57 1.0 6.0 0.00 0.00 0.00 76 1015.7
20260506092309 49 264 1.0 2.0 0.00 0.00 0.00 76 1015.9
20260506091806 49 16 2.0 3.0 0.00 0.00 0.00 76 1016.0
20260506091304 49 58 0.0 8.0 0.00 0.00 0.00 76 1015.8
20260506090802 49 24 0.0 6.0 0.00 0.00 0.00 76 1015.6
20260506090258 49 348 3.0 6.0 0.00 0.00 0.00 76 1015.6
20260506085755 49 6 4.0 6.0 0.00 0.00 0.00 76 1015.8
20260506085251 49 29 0.0 6.0 0.00 0.00 0.00 75 1015.8
20260506084748 49 322 5.0 8.0 0.00 0.00 0.00 75 1015.9
20260506084244 49 288 1.0 6.0 0.00 0.00 0.00 74 1015.7